[[{"header":{"parameterUnit":"m.s-1","parameterCategory":1,"la1":30.2991,"la2":30.254,"lo1":-89.0895,"lo2":-89.0444,"dy":0.0017,"dx":0.0017,"nx":28,"ny":28,"refTime":"2024-08-26T09:00:00:Z","depth":0,"parameterNumber":2,"parameterNumberName":"U-component_of_WINDS"},"data":[0,0,0,0,0,0,0,0,0,0,0,0,0,0,0,0,0,0,0,0,0,0,0,0,0,0,0,0,0,0,0,0,0,0,0,0,0,0,0,0,0,0,0,0,0,0,0,0,0,0,0,0,0,0,0,0,0,0,-3.8051,-3.8052,0,-3.8095,-3.8096,-3.8096,-3.8041,-3.8039,-3.8037,-3.8035,-3.8079,-3.8082,-3.8085,0,0,0,0,0,0,0,0,0,0,0,0,0,-3.792,-3.7923,-3.8051,-3.8052,-3.8053,-3.8095,-3.8096,-3.8096,-3.8041,-3.8039,-3.8036,-3.8034,-3.8078,-3.8081,-3.8085,0,0,0,0,0,0,0,0,0,0,0,0,0,-3.7972,-3.7924,-3.8051,-3.803,-3.8029,-3.8095,-3.8096,-3.8096,-3.8042,-3.8039,-3.8036,-3.8033,-3.8077,-3.8081,-3.8086,-3.8175,0,0,-3.81,-3.8102,0,0,0,0,0,0,0,0,-3.7969,-3.7977,-3.8033,-3.8032,-3.803,-3.8059,-3.8065,-3.8123,-3.8042,-3.8037,-3.8035,-3.8031,-3.8075,-3.8079,-3.8094,-3.8177,-3.8179,-3.81,-3.8103,-3.8105,-3.8106,0,0,0,0,0,0,0,-3.7965,-3.7974,-3.8069,-3.8034,-3.8032,-3.8018,-3.8022,-3.8076,-3.8072,-3.8037,-3.8033,-3.8039,-3.8074,-3.809,-3.8095,-3.8179,-3.81,-3.8104,-3.8107,-3.8109,-3.8339,-3.8342,0,0,0,0,0,0,-3.7964,-3.7972,-3.8067,-3.807,-3.7991,-3.8023,-3.8028,-3.8053,-3.8071,-3.8071,-3.8042,-3.8036,-3.8084,-3.809,-3.8096,-3.8203,-3.8105,-3.8109,-3.8112,-3.8336,-3.834,-3.8343,0,0,0,0,0,0,-3.7962,-3.7973,-3.8065,-3.802,-3.8031,-3.8029,-3.8058,-3.8056,-3.8072,-3.8075,-3.8074,-3.8059,-3.8081,-3.809,-3.8156,-3.8204,-3.8111,-3.8115,-3.8332,-3.8337,-3.8342,-3.8418,0,0,0,0,0,0,-3.7958,-3.7973,-3.8007,-3.8021,-3.8033,-3.8125,-3.8061,-3.8059,-3.808,-3.8074,-3.8091,-3.8091,-3.808,-3.815,-3.8161,-3.8209,-3.8119,-3.8327,-3.8334,-3.834,-3.8411,-3.8425,-3.8437,0,0,0,0,0,-3.7954,-3.8026,-3.8009,-3.802,-3.8075,-3.8128,-3.8135,-3.812,-3.8084,-3.8118,-3.812,-3.8091,-3.8197,-3.8157,-3.8169,-3.8219,-3.8324,-3.8332,-3.834,-3.8405,-3.8422,-3.8436,0,0,0,0,0,0,-3.8016,-3.8027,-3.8008,-3.8087,-3.8107,-3.8118,-3.8161,-3.8138,-3.8169,-3.8161,-3.8142,-3.8146,-3.8218,-3.8224,-3.818,-3.8307,-3.8255,-3.8265,-3.83,-3.8316,-3.8329,-3.8327,-3.8123,0,0,0,0,0,-3.8039,-3.8081,-3.8088,-3.8157,-3.8168,-3.8163,-3.8185,-3.8172,-3.8192,-3.82,-3.8207,-3.8227,-3.8265,-3.8291,-3.8326,-3.8411,-3.8415,-3.8452,-3.8464,-3.8475,-3.8485,-3.8532,-3.8549,-3.8368,-3.8368,-3.8368,0,0,-3.8087,-3.8098,-3.8125,-3.817,-3.8184,-3.8228,-3.817,-3.8219,-3.8252,-3.8207,-3.8271,-3.8277,-3.8298,-3.8375,-3.8409,-3.8383,-3.8535,-3.8485,-3.8493,-3.8497,-3.8542,-3.8559,-3.8574,-3.8374,-3.8373,-3.8372,0,0,-3.8197,-3.8209,-3.8269,-3.8284,-3.8307,-3.8303,-3.8317,-3.8333,-3.8335,-3.8399,-3.8367,-3.8405,-3.8471,-3.8488,-3.8505,-3.8624,-3.8598,-3.8635,-3.8703,-3.875,-3.8764,-3.8777,-3.8821,-3.8837,-3.8644,-3.8645,-3.8645,0,-3.8254,-3.8319,-3.8302,-3.8354,-3.8375,-3.8337,-3.8398,-3.8414,-3.8446,-3.8462,-3.8432,-3.8515,-3.8526,-3.8607,-3.8637,-3.8651,-3.8668,-3.8634,-3.8763,-3.8776,-3.8787,-3.8829,-3.8846,-3.8649,-3.8649,-3.8648,-3.8648,0,-3.8389,-3.8435,-3.8481,-3.8514,-3.854,-3.8596,-3.8588,-3.8616,-3.8601,-3.8601,-3.8667,-3.8679,-3.8717,-3.8735,-3.872,-3.8815,-3.8799,-3.8766,-3.8713,-3.8809,-3.8849,-3.8865,-3.8656,-3.8654,-3.8653,-3.8652,0,0,-3.8541,-3.8565,-3.8582,-3.8598,-3.862,-3.8655,-3.8709,-3.8747,-3.8773,-3.8796,-3.8842,-3.8899,-3.887,-3.889,-3.8876,-3.8917,-3.9013,-3.888,-3.888,-3.8906,-3.9121,-3.9147,-3.9165,-3.8995,-3.8998,-3.9,-3.912,0,-3.8653,-3.8748,-3.8735,-3.8827,-3.887,-3.8835,-3.8883,-3.8902,-3.8903,-3.894,-3.894,-3.8982,-3.8939,-3.8951,-3.899,-3.8993,-3.9056,-3.8984,-3.904,-3.9042,-3.9038,-3.9185,-3.9213,-3.9325,-3.9135,-3.9137,-3.9139,0,-3.8797,-3.8827,-3.8924,-3.8941,-3.8959,-3.9002,-3.9036,-3.9071,-3.9092,-3.909,-3.9113,-3.9093,-3.9148,-3.9093,-3.917,-3.9122,-3.9143,-3.9148,-3.9152,-3.9159,-3.9098,-3.9198,-3.936,-3.9378,-3.9163,-3.9161,-3.9159,0,-3.8901,-3.8966,-3.9032,-3.9046,-3.9067,-3.9099,-3.9109,-3.9127,-3.9151,-3.9181,-3.9196,-3.9232,-3.9252,-3.928,-3.927,-3.9231,-3.935,-3.9293,-3.9351,-3.9352,-3.938,-3.9378,-3.9549,-3.939,-3.9389,-3.9389,-3.9389,0,-3.9029,-3.9091,-3.908,-3.9121,-3.9189,-3.9172,-3.924,-3.9245,-3.9262,-3.9304,-3.9275,-3.9315,-3.9299,-3.9338,-3.9331,-3.9397,-3.9405,-3.9406,-3.9404,-3.941,-3.9411,-3.9426,-3.9419,-3.9394,-3.9393,-3.9392,-3.9391,0,-3.9158,-3.9153,-3.9224,-3.9238,-3.9243,-3.9293,-3.9305,-3.9344,-3.9343,-3.9397,-3.9408,-3.9407,-3.9452,-3.9445,-3.9494,-3.9489,-3.9572,-3.9559,-3.9566,-3.9564,-3.9623,-3.9619,-3.9811,-3.9837,-3.9659,-3.966,-3.9662,0,-3.9241,-3.9288,-3.9308,-3.9334,-3.9347,-3.939,-3.9414,-3.94,-3.9427,-3.9455,-3.9491,-3.9534,-3.9567,-3.9641,-3.9644,-3.9682,-3.9671,-3.9736,-3.9677,-3.9683,-3.9675,-3.9674,-3.968,-3.9749,-3.9751,-3.9753,-3.9754,0,-3.9391,-3.9387,-3.9424,-3.9461,-3.9491,-3.9519,-3.9544,-3.9568,-3.9555,-3.9587,-3.9633,-3.9659,-3.9711,-3.9754,-3.979,-3.98,-3.9776,-3.9772,-3.9788,-3.9796,-3.98,-3.9801,-3.9601,-3.9768,-3.9767,-3.9766,-3.9765,-3.9765,-3.9501,-3.9542,-3.9563,-3.9605,-3.9623,-3.9647,-3.9686,-3.969,-3.9728,-3.9769,-3.9758,-3.9811,-3.9831,-3.9877,-3.9892,-3.9933,-3.9909,-3.9931,-3.9937,-3.9944,-3.9952,-3.9791,-3.9939,-3.9939,-3.9938,-3.9938,-3.9937,0,-3.9652,-3.9663,-3.9703,-3.974,-3.9774,-3.9747,-3.9774,-3.9805,-3.9852,-3.9873,-3.9907,-3.9961,-4.0002,-4.0009,-4.0049,-4.0081,-4.0072,-4.0093,-4.0091,-4.0095,-3.997,-3.9954,-4.01,-4.01,-4.01,-4.01,-4.01,-4.01,-3.9734,-3.9802,-3.98,-3.9877,-3.9888,-3.994,-3.9958,-3.9981,-3.9998,-4.006,-4.0095,-4.0099,-4.0115,-4.0156,-4.0194,-4.0195,-4.0212,-4.0238,-4.0235,-4.0119,-4.0103,-4.0088,-4.0072,-4.0241,-4.0242,-4.0357,-4.0358,-4.0359]},{"header":{"parameterUnit":"m.s-1","parameterCategory":1,"la1":30.2991,"la2":30.254,"lo1":-89.0895,"lo2":-89.0444,"dy":0.0017,"dx":0.0017,"nx":28,"ny":28,"refTime":"2024-08-26T09:00:00:Z","depth":0,"parameterNumber":3,"parameterNumberName":"V-component_of_WINDS"},"data":[0,0,0,0,0,0,0,0,0,0,0,0,0,0,0,0,0,0,0,0,0,0,0,0,0,0,0,0,0,0,0,0,0,0,0,0,0,0,0,0,0,0,0,0,0,0,0,0,0,0,0,0,0,0,0,0,0,0,-2.9376,-2.9376,0,-2.9369,-2.9369,-2.9369,-2.9306,-2.9305,-2.9303,-2.9302,-2.9295,-2.9296,-2.9297,0,0,0,0,0,0,0,0,0,0,0,0,0,-2.9335,-2.9336,-2.9376,-2.9376,-2.9376,-2.9369,-2.9369,-2.9369,-2.9307,-2.9305,-2.9303,-2.9301,-2.9295,-2.9296,-2.9298,0,0,0,0,0,0,0,0,0,0,0,0,0,-2.9343,-2.9336,-2.9376,-2.9344,-2.9341,-2.9369,-2.9369,-2.9369,-2.9307,-2.9305,-2.9302,-2.93,-2.9294,-2.9296,-2.9298,-2.9356,0,0,-2.9304,-2.9304,0,0,0,0,0,0,0,0,-2.9342,-2.9344,-2.9349,-2.9346,-2.9343,-2.9336,-2.9352,-2.9365,-2.9308,-2.932,-2.9302,-2.9299,-2.9311,-2.9311,-2.9315,-2.9356,-2.9356,-2.9304,-2.9305,-2.9306,-2.9306,0,0,0,0,0,0,0,-2.9342,-2.9344,-2.9373,-2.9349,-2.9345,-2.933,-2.9328,-2.9354,-2.9328,-2.9319,-2.9314,-2.9314,-2.9309,-2.9313,-2.9314,-2.9355,-2.9304,-2.9305,-2.9307,-2.9307,-2.9444,-2.9447,0,0,0,0,0,0,-2.9346,-2.9344,-2.9373,-2.9373,-2.9337,-2.9332,-2.9331,-2.9341,-2.9328,-2.9324,-2.9316,-2.9311,-2.9311,-2.9312,-2.9314,-2.9382,-2.9306,-2.9308,-2.9309,-2.9442,-2.9445,-2.9448,0,0,0,0,0,0,-2.9345,-2.9349,-2.9374,-2.9357,-2.9359,-2.9336,-2.9347,-2.9342,-2.9346,-2.9326,-2.9321,-2.9326,-2.9309,-2.9311,-2.9346,-2.9381,-2.9308,-2.931,-2.9439,-2.9443,-2.9446,-2.9518,0,0,0,0,0,0,-2.9344,-2.9349,-2.9371,-2.9358,-2.936,-2.9407,-2.9349,-2.9343,-2.935,-2.9343,-2.9334,-2.933,-2.9308,-2.9344,-2.9348,-2.9382,-2.9312,-2.9436,-2.9441,-2.9445,-2.9513,-2.9524,-2.9534,0,0,0,0,0,-2.9343,-2.9392,-2.9373,-2.9377,-2.9388,-2.9409,-2.941,-2.9383,-2.9353,-2.9375,-2.9362,-2.933,-2.9376,-2.9348,-2.9352,-2.9387,-2.9433,-2.9439,-2.9445,-2.9508,-2.9522,-2.9533,0,0,0,0,0,0,-2.9409,-2.9389,-2.9368,-2.9414,-2.9414,-2.9398,-2.9425,-2.9399,-2.9407,-2.94,-2.9367,-2.9365,-2.9406,-2.9399,-2.9369,-2.9443,-2.9399,-2.9406,-2.9446,-2.9459,-2.9469,-2.947,-2.9313,0,0,0,0,0,-2.9429,-2.9448,-2.943,-2.9472,-2.9473,-2.9449,-2.9457,-2.9437,-2.9435,-2.9434,-2.9424,-2.9423,-2.9437,-2.9447,-2.9459,-2.9511,-2.9508,-2.9537,-2.9548,-2.9556,-2.9563,-2.959,-2.9603,-2.9466,-2.9466,-2.9466,0,0,-2.9471,-2.9462,-2.9476,-2.9485,-2.9482,-2.9503,-2.9449,-2.9473,-2.9488,-2.9438,-2.9471,-2.9463,-2.946,-2.9504,-2.9523,-2.95,-2.96,-2.9564,-2.9571,-2.9572,-2.9597,-2.9611,-2.9622,-2.947,-2.9469,-2.9469,0,0,-2.9557,-2.9552,-2.9587,-2.9586,-2.9582,-2.9566,-2.9574,-2.9563,-2.9556,-2.9588,-2.9551,-2.9568,-2.9593,-2.9592,-2.9595,-2.9681,-2.9653,-2.9686,-2.9741,-2.9768,-2.9779,-2.9788,-2.982,-2.9831,-2.9692,-2.9693,-2.9693,0,-2.9609,-2.9639,-2.9609,-2.9635,-2.964,-2.9595,-2.9631,-2.963,-2.9631,-2.9636,-2.961,-2.9641,-2.9636,-2.9679,-2.97,-2.9704,-2.9713,-2.9688,-2.978,-2.9789,-2.9797,-2.9827,-2.9839,-2.9697,-2.9696,-2.9696,-2.9695,0,-2.9703,-2.9724,-2.9753,-2.9754,-2.9762,-2.9793,-2.9768,-2.978,-2.9758,-2.9745,-2.9779,-2.9771,-2.978,-2.9789,-2.9768,-2.983,-2.9816,-2.9786,-2.9741,-2.9815,-2.9842,-2.9853,-2.9703,-2.9701,-2.97,-2.9699,0,0,-2.9832,-2.9816,-2.9828,-2.9828,-2.982,-2.9836,-2.9864,-2.9874,-2.9885,-2.9887,-2.991,-2.9932,-2.9904,-2.9908,-2.9887,-2.991,-2.998,-2.9877,-2.9877,-2.9897,-3.0048,-3.0071,-3.0085,-2.996,-2.9962,-2.9964,-3.0048,0,-2.9916,-2.9964,-2.9938,-2.9989,-3.0008,-2.9966,-2.9991,-2.9989,-2.9977,-2.9992,-2.9978,-2.9995,-2.9956,-2.9958,-2.998,-2.9967,-3.001,-2.996,-2.9982,-2.9984,-2.9986,-3.0099,-3.0123,-3.0203,-3.0058,-3.006,-3.0061,0,-3.002,-3.0026,-3.008,-3.0069,-3.0076,-3.0099,-3.0106,-3.012,-3.0117,-3.0106,-3.011,-3.0083,-3.0111,-3.0066,-3.0103,-3.007,-3.0078,-3.0073,-3.0075,-3.0077,-3.0028,-3.0104,-3.0228,-3.0241,-3.0078,-3.0076,-3.0075,0,-3.011,-3.0131,-3.0166,-3.0168,-3.0156,-3.0173,-3.0169,-3.0163,-3.0171,-3.0176,-3.0181,-3.019,-3.0195,-3.0202,-3.0178,-3.0148,-3.0219,-3.0172,-3.0212,-3.0213,-3.023,-3.0229,-3.0357,-3.0233,-3.0233,-3.0233,-3.0233,0,-3.0206,-3.0241,-3.0206,-3.0228,-3.0266,-3.0235,-3.0273,-3.0264,-3.026,-3.0279,-3.0243,-3.0262,-3.0229,-3.0244,-3.0226,-3.026,-3.0262,-3.0255,-3.025,-3.0259,-3.026,-3.0264,-3.0258,-3.0236,-3.0235,-3.0235,-3.0234,0,-3.0313,-3.0291,-3.0327,-3.0312,-3.0309,-3.0338,-3.0326,-3.0345,-3.033,-3.0355,-3.0359,-3.0337,-3.0353,-3.033,-3.0344,-3.0331,-3.0379,-3.0365,-3.038,-3.0376,-3.0418,-3.0415,-3.0554,-3.0571,-3.0435,-3.0436,-3.0437,0,-3.0377,-3.0403,-3.0391,-3.0401,-3.0399,-3.0416,-3.0424,-3.0394,-3.0403,-3.0402,-3.0422,-3.0435,-3.0444,-3.0473,-3.0458,-3.0468,-3.0455,-3.0503,-3.0456,-3.0464,-3.0456,-3.0456,-3.0458,-3.0513,-3.0514,-3.0516,-3.0517,0,-3.0493,-3.0481,-3.0493,-3.0501,-3.0511,-3.0516,-3.0519,-3.0529,-3.0498,-3.051,-3.0527,-3.0534,-3.0548,-3.0562,-3.0569,-3.0564,-3.0536,-3.0531,-3.0541,-3.0551,-3.0559,-3.0556,-3.0407,-3.0528,-3.0527,-3.0526,-3.0526,-3.0525,-3.0581,-3.0602,-3.0597,-3.0611,-3.061,-3.0613,-3.0631,-3.0619,-3.0632,-3.0641,-3.0623,-3.0644,-3.064,-3.0646,-3.0645,-3.0661,-3.064,-3.0654,-3.0658,-3.0662,-3.0669,-3.0556,-3.0662,-3.0662,-3.0661,-3.0661,-3.0661,0,-3.0695,-3.069,-3.0704,-3.0708,-3.072,-3.0691,-3.0692,-3.0704,-3.0723,-3.0722,-3.0732,-3.0751,-3.0764,-3.075,-3.0761,-3.0777,-3.0764,-3.0781,-3.078,-3.0779,-3.0687,-3.0678,-3.0791,-3.0791,-3.0791,-3.0791,-3.0791,-3.0791,-3.0756,-3.0791,-3.0778,-3.0811,-3.0805,-3.0826,-3.0829,-3.0832,-3.0831,-3.0854,-3.0865,-3.0855,-3.0849,-3.0859,-3.087,-3.0865,-3.0871,-3.0893,-3.0884,-3.0798,-3.0786,-3.0773,-3.0765,-3.0894,-3.0895,-3.0975,-3.0976,-3.0977]}]]